sat.trackr.live / text

‹ back to catalog

STARLINK-35172

NORAD 65533 · 2025-200P

PAYLOAD ACTIVE UNKNOWN

§ Identity

Operator
Country
US
Launch date
2025-09-06
Launch site
AFWTR
Launch vehicle
Mass (kg)
RCS (m²)

Purposes: comms

External: N2YO · Heavens-Above · Gunter

§ Orbital elements

Epoch: 2026-09-20T10:29:43.774080Z

Period
93.90 min
Inclination
97.2868°
Eccentricity
0.0001366
Mean motion
15.33484337 rev/d
Perigee alt
464.5 km
Apogee alt
466.4 km
Semi-major
6,843.6 km
B*
5.6031e-4
RAAN
329.8543°
Arg perigee
96.6009°
Mean anomaly
263.5389°
Rev number
5,863

§ Raw data

STARLINK-351721 65533U 25200P   26263.43731220  .00018080  00000+0  56031-3 0  99962 65533  97.2868 329.8543 0001366  96.6009 263.5389 15.33484337 58633

JSON: /api/v1/satellites/65533 · /tle

For live sub-satellite position, see the globe view (requires WebGL).

§ Visibility from observer

Set your observer location to see the next 7 days of passes ≥ 10°. The values pass through the URL so the page stays shareable.

No JS? Fill the form by hand. The geolocation button needs JavaScript.